Location: Carnetin
(48.9010°N, 2.7059°E)
Time: 13:46:23
(UTC+00:00)

HJ-1C - Pass Details

Date: 24 October 2021
Orbit: 423 x 433 km, 97.1° (Epoch: 28 November)

Event Time Altitude Azimuth Distance (km) Brightness Sun altitude
Exits shadow 18:01:15 25° 99° (E) 896 4.3 -13.6°
Maximum altitude 18:02:07 29° 70° (ENE) 811 4.1 -13.7°
Drops below altitude 10° 18:05:00 10° 8° (N) 1,534 6.0 -14.2°
Sets 18:07:10 0° 357° (N) 2,409 7.1 -14.6°
